Regional Weather Roundup
Issued by NWS Memphis, TN

Home | Current Version | Previous Version | Text Only | Print | Product List | Glossary On
Versions: 1 2 3 4 5 6 7 8 9 10 11 12 13 14 15 16 17 18 19 20 21 22 23 24 25 26 27 28 29 30 31 32 33 34 35 36 37 38 39 40 41 42 43 44 45 46 47 48 49 50
000
ASUS44 KMEG 260910
RWRMEG
MEMPHIS CWA HOURLY WEATHER ROUNDUP
NATIONAL WEATHER SERVICE MEMPHIS TN
300 AM CST WED NOV 26 2014

...WEST TENNESSEE...

CITY           SKY/WX    TMP DP  RH WIND       PRES   REMARKS
MEMPHIS INTL   PTCLDY    32  26  78 CALM      30.15F
NWS MEMPHIS      N/A     28 N/A N/A MISG        N/A
JACKSON        CLEAR     25  22  88 CALM      30.16R
LEXINGTON      CLEAR     27  23  86 CALM      30.13S
SAVANNAH       CLEAR     25  25 100 CALM      30.14F
DYERSBURG      CLEAR     27  14  59 E5        30.17F WCI  21
UNION CITY     CLEAR     25  23  93 CALM      30.14F
PARIS          CLEAR     21  19  93 CALM      30.15S
HUNTINGDON     CLEAR     22  21  96 CALM      30.15S


...EASTERN ARKANSAS...

CITY           SKY/WX    TMP DP  RH WIND       PRES   REMARKS
JONESBORO      CLEAR     29  28  96 CALM      30.14F
WEST MEMPHIS   CLEAR     30  29  96 SE3       30.15S
BATESVILLE     PTCLDY    28  23  80 CALM      30.11F
NEWPORT        PTCLDY    32  30  92 SE6       30.14F WCI  26
WALNUT RIDGE   PTCLDY    30  25  80 CALM      30.13S
BLYTHEVILLE    CLEAR     37  28  70 SE5       30.16S WCI  33
SEARCY         PTCLDY    28  27  96 CALM      30.14F
STUTTGART      MOCLDY    37  30  75 SE5       30.15S WCI  34
PINE BLUFF     PTCLDY    35  32  88 SE3       30.15S
MONTICELLO     PTCLDY    33  30  88 CALM      30.16R


...NORTH MISSISSIPPI...

CITY           SKY/WX    TMP DP  RH WIND       PRES   REMARKS
TUPELO         CLEAR     29  25  85 W3        30.17R
OXFORD         CLEAR     25  25 100 CALM      30.17S
OLIVE BRANCH   CLEAR     30  30 100 CALM      30.16F
TUNICA         CLEAR     32  30  93 CALM      30.18S
CLARKSDALE     CLEAR     32  30  93 CALM      30.17F
CORINTH        CLEAR     28  25  86 CALM      30.15S
GRENADA        CLEAR     28  27  93 CALM      30.18F
GREENWOOD      CLEAR     27  24  89 NE5       30.18S WCI  22
COLUMBUS       CLEAR     28  26  90 CALM      30.17S
STARKVILLE       N/A     28  27  93 CALM      30.17S
GOLDEN TRIANGL CLEAR     32  27  80 W3        30.16R


...SOUTHEAST MISSOURI...

CITY           SKY/WX    TMP DP  RH WIND       PRES   REMARKS
WEST PLAINS    MOCLDY    29  18  63 S3        30.07F
POPLAR BLUFF   PTCLDY    25  21  85 CALM      30.12F
CAPE GIRARDEAU CLEAR     26  24  92 E5        30.14F WCI  20


...NORTHWEST ALABAMA...

CITY           SKY/WX    TMP DP  RH WIND       PRES   REMARKS
MUSCLE SHOALS  CLEAR     32  25  75 NW6       30.14F WCI  26


...MIDDLE TENNESSEE...

CITY           SKY/WX    TMP DP  RH WIND       PRES   REMARKS
NASHVILLE      CLEAR     33  27  78 NW5       30.12S WCI  29
CLARKSVILLE    CLEAR     26  24  92 CALM      30.13F
COLUMBIA       CLEAR     28  28 100 CALM      30.10F


...WESTERN KENTUCKY...

CITY           SKY/WX    TMP DP  RH WIND       PRES   REMARKS
PADUCAH        CLEAR     24  21  88 SE3       30.15F FOG
FORT CAMPBELL  CLEAR     28  28  99 CALM      30.13F


...CENTRAL ARKANSAS...

CITY           SKY/WX    TMP DP  RH WIND       PRES   REMARKS
LITTLE ROCK    MOCLDY    33  29  85 CALM      30.13F


SKY/WX REPORTED AS FAIR MEANS FEW OR NO CLOUDS BELOW
12 THOUSAND FEET.



USA.gov is the U.S. government's official web portal to all federal, state and local government web resources and services.